星链-30478 (STARLINK-30478 )

导读

STARLINK-30478是美国SpaceX公司星链星座的一员,于2023年9月20日发射。作为低轨通信卫星,它采用平板设计与氪基霍尔推进技术,支持Ku/Ka频段通信,配备自主避撞系统,服务寿命约5-7年。该卫星旨在补充全球宽带互联网覆盖,为偏远地区、海洋等场景提供高速网络接入,助力星链实现全球无缝连接的通信目标。

基本信息
目录编号:
57911
目录名称:
STARLINK-30478
国际标识:
2023-146W
轨道中心:
EARTH
卫星名称:
星链-30478
卫星全名:
星链-30478 (STARLINK-30478 )
卫星状态:
在轨 (已飞行1004 天)
发射日期:
2023-09-20 UTC
国别 :
美国 (US)
星等 :
--
轨道信息
数据来源 国际轨道数据 AOE轨道数据
星历时间 2026-06-19T20:42:38+0800
21小时前
查看轨道信息
2026-06-15T01:00:00+0800
5天前
查看轨道信息
半长轴 6861.196km 6861.182km
偏心率 0.0001861 0.0001971
轨道倾角 43.006° 43.004°
近地点辐角 256.968° 273.430°
升交点赤经 98.859° 126.093°
平近点角 103.097° 182.032°
近地点 481.782km 481.692km
远地点 484.336km 484.398km
周期 94.267分钟 94.267分钟
每日圈数 15.275767 15.275817
详细信息
固有亮度:
5
最大亮度:
0.3
卫星平台:
Starlink v2.0 mini
覆盖范围:
全球
运营商:
太空探索技术公司
运营商所在国:
美国
制造商(研发单位):
太空探索技术公司
制造商所在国:
美国
使用方式:
暂无
卫星简介
星链(Starlink)计划是由太空探索技术公司(SpaceX)提出的一个巨型低轨卫星互联网星座项目,计划在2019年至2024年间在太空搭建由约1.2万颗卫星组成的“星链”网络,其中1584颗将部署在地球上空550千米处的近地轨道,并从2020年开始工作。该卫星仍在工作。
2D轨道图
3D轨道图
轨道高度分析图
轨道倾角分析图
轨道综合分析图
查看轨道综合分析图